Location: Hurstbourne Priors
(51.2000°N, 1.3667°W)
Time: 18:04:39
(UTC+00:00)

RESURS DK-1 - Pass Details

Date: 09 April 2020
Orbit: 557 x 561 km, 69.9° (Epoch: 28 May)

Event Time Altitude Azimuth Distance (km) Brightness Sun altitude
Rises 20:42:34 0° 330° (NNW) 2,763 7.2 -16.4°
Reaches altitude 10° 20:44:50 10° 335° (NNW) 1,863 6.0 -16.6°
Maximum altitude 20:48:56 55° 54° (NE) 679 2.6 -17.1°
Enters shadow 20:50:17 37° 112° (ESE) 891 2.9 -17.3°
